Regional Weather Roundup
Issued by NWS

Home | Current Version | Previous Version | Graphics & Text | Print | Product List | Glossary On
Versions: 1 2 3 4 5 6 7 8 9 10 11 12 13 14 15 16 17 18 19 20 21 22 23 24 25 26 27 28 29 30 31 32 33
000
ASUS45 KGTF 070210
RWRMT
MONTANA HOURLY WEATHER ROUNDUP
NATIONAL WEATHER SERVICE GREAT FALLS MT
800 PM MDT WED MAY 06 2015

NOTE: "FAIR" INDICATES FEW OR NO CLOUDS BELOW 12000 FEET WITH NO
SIGNIFICANT WEATHER AND/OR OBSTRUCTIONS TO VISIBILITY.

MTZ001>007-043-070300-
WEST OF THE DIVIDE

CITY           SKY/WX    TMP DP  RH WIND       PRES   REMARKS
KALISPELL      CLEAR     58  20  22 N6        29.87R
MISSOULA       MOCLDY    56  18  22 N15G23    29.84R
BUTTE          CLOUDY    49  26  41 E15G23    29.84R
DEER LODGE       N/A     52  25  35 NE15G21   29.89R
EUREKA           N/A     63  19  19 CALM      29.90R
HAMILTON         N/A     55  23  28 N6        29.83R
LIBBY            N/A     57  23  26 NW7       29.90R
$$

MTZ008-052>055-070300-
SOUTHWEST MONTANA

CITY           SKY/WX    TMP DP  RH WIND       PRES   REMARKS
BOZEMAN        CLOUDY    51  35  54 SE10      29.83R
DILLON         CLOUDY    52  32  46 E8        29.79R
$$

MTZ009-010-012-014-046-048-049-054-070300-
EAST SLOPES AND CENTRAL MONTANA

CITY           SKY/WX    TMP DP  RH WIND       PRES   REMARKS
CUT BANK       MOCLDY    49  23  36 NE21      29.95R
GREAT FALLS    CLEAR     52  22  30 NE10      29.91R
MALMSTROM AFB  CLEAR     53  23  30 NE12      29.92R
HELENA         PTCLDY    53  26  35 NE10      29.87R
$$

MTZ011-013-016-021-045-047-050-051-070300-
NORTH CENTRAL MONTANA

CITY           SKY/WX    TMP DP  RH WIND       PRES   REMARKS
HAVRE          PTCLDY    54  27  35 N14       29.93R
LEWISTOWN      PTCLDY    50  32  50 N8        29.92R
CHINOOK          N/A     54  28  37 N10       29.92R
FORT BENTON      N/A     55  25  30 N12       29.94R
$$

MTZ017>020-022>042-056>058-061-062-070300-
EASTERN PLAINS

CITY           SKY/WX    TMP DP  RH WIND       PRES   REMARKS
BAKER          LGT RAIN  49  48  97 NW16G24   29.77R
BILLINGS       CLOUDY    53  30  41 N9        29.89R
GLASGOW        MOCLDY    56  33  42 N16       29.83R
JORDAN           N/A     56  36  47 N15       29.85R
LIVINGSTON     PTCLDY    51  30  44 E18       29.86R
MILES CITY     CLOUDY    55  42  61 N13       29.82R
SIDNEY         CLOUDY    52  46  82 NW13      29.76S
WOLF POINT     CLOUDY    59  38  45 N13       29.80S
BIG TIMBER       N/A     50  32  50 N6        29.90R
FORSYTH          N/A     55  36  47 NW6       29.84R
PLENTYWOOD       N/A     54  45  71 NW16G22   29.77R
POPLAR           N/A     55  43  62 NW9       29.80R
$$

REGIONAL REPORTS...DAKOTAS

CITY           SKY/WX    TMP DP  RH WIND       PRES   REMARKS
WILLISTON      LGT RAIN  51  48  89 N16G24    29.74S
MINOT          LGT RAIN  58  57  97 N5        29.64R
DICKINSON      CLOUDY    51  50  96 NW24G32   29.67R
BEACH          CLOUDY    48  48 100 N15       29.77R
CROSBY         LGT RAIN  50  50 100 NW16G22   29.74S
WATFORD CITY   CLOUDY    48  48 100 N16G22    29.71R
BISMARCK       CLOUDY    62  57  83 E8        29.61R
GRAND FORKS    CLOUDY    61  59  93 E10       29.67F
FARGO          CLOUDY    65  61  87 SE18G24   29.67R
BUFFALO SD       N/A     51  47  86 NW28G35   29.64R
RAPID CITY     LGT RAIN  51  47  86 NW28G40   29.66R
$$

REGIONAL REPORTS...WYOMING/IDAHO/WASHINGTON

CITY           SKY/WX    TMP DP  RH WIND       PRES   REMARKS
GILLETTE       CLOUDY    44  41  89 NW16      29.83R
SHERIDAN       CLOUDY    46  37  71 W10       29.88S
BUFFALO WY     CLOUDY    46  32  58 NW24G36   29.86S
CODY           CLOUDY    46  30  53 N10       29.88S
YELLOWSTONE LA   N/A     40  35  83 VRB3      29.87R
IDAHO FALLS    CLOUDY    54  42  64 NW6       29.74R
SALMON         CLOUDY    52  39  62 SE15      29.79R
BOISE          PTCLDY    61  17  18 NW14      29.77S
SPOKANE        MOSUNNY   59  23  25 N9        29.91R
$$

REGIONAL REPORTS...ALBERTA

CITY           SKY/WX    TMP DP  RH WIND       PRES   REMARKS
EDMONTON       CLOUDY    34  30  86 NW15      30.08S WCI  24
CALGARY        MOCLDY    41  23  48 N16       30.05R
LETHBRIDGE     PTCLDY    48  27  43 N14G21    30.00R
MEDICINE HAT   PTCLDY    46  30  53 NW22      30.00R
$$

REGIONAL REPORTS...SASKATCHEWAN

CITY           SKY/WX    TMP DP  RH WIND       PRES   REMARKS
SWIFT CURRENT  PTCLDY    48  30  49 NW24G30   29.88R
REGINA         CLOUDY    52  43  71 NW15G23   29.80R
SASKATOON      CLOUDY    45  34  65 NW20G29   29.89R
$$



USA.gov is the U.S. government's official web portal to all federal, state and local government web resources and services.